Green Bay, WI

5:54 AM CDT on April 23, 2017 (GMT -0500)
Austin Straubel International

Weather History for KGRB - June, 2012

Change the Weather History Date:

Saturday, June 16, 2012

  Actual Average Record
Temperature  
Mean Temperature 76 °F 65 °F  
Max Temperature 86 °F 76 °F 93 °F (1994)
Min Temperature 66 °F 55 °F 35 °F (1964)
Degree Days  
Heating Degree Days 0 3  
Month to date heating degree days 25 67  
Since 1 June heating degree days 25 67  
Since 1 July heating degree days 6170 7930  
Cooling Degree Days 11 3  
Month to date cooling degree days 83 30  
Year to date cooling degree days 146 48  
Since 1 June cooling degree days 83 30  
Growing Degree Days 26 (Base 50)    
Moisture  
Dew Point 61 °F    
Average Humidity 64    
Maximum Humidity 90    
Minimum Humidity 37    
Precipitation  
Precipitation 0.05 in 0.13 in 3.06 in (1897)
Month to date precipitation 0.05 2.10  
Year to date precipitation 10.60 11.75  
Snow  
Snow 0.00 in 0.00 in 0.00 in ()
Month to date snowfall 0.0 0.0  
Since 1 June snowfall 0.0 0.0  
Since 1 July snowfall 31.7 51.4  
Snow Depth 0.00 in    
Sea Level Pressure  
Sea Level Pressure 29.92 in    
Wind  
Wind Speed 8 mph (SSE)    
Max Wind Speed 25 mph    
Max Gust Speed 31 mph    
Visibility 8 miles    
Events Rain    
T = Trace of Precipitation, MM = Missing Value Source: NWS Daily Summary

Daily Weather History Graph

Daily Weather History Graph

Search for Another Location

Airport or City:

Trip Planner

Search our weather history database for the weather conditions in past years. The results will help you decide how hot, cold, wet, or windy it might be!

Date:

Astronomy

Jun. 16, 2012 Rise Set
Actual Time 5:07 AM CDT 8:39 PM CDT
Civil Twilight 4:30 AM CDT 9:16 PM CDT
Nautical Twilight 3:41 AM CDT 10:05 PM CDT
Astronomical Twilight 2:38 AM CDT 11:08 PM CDT
Moon 3:00 AM CDT (6/16) 6:11 PM CDT (6/16)
Length of Visible Light 16h 46m
Length of Day
15h 32m
Waning Crescent, 8% of the Moon is Illuminated
Jun 16
Waning Crescent
Jun 19
New
Jun 26
First Quarter
Jul 3
Full
Jul 10
Last Quarter

Hourly Weather History & Observations

Time (CDT) Temp. Heat Index Dew Point Humidity Pressure Visibility Wind Dir Wind Speed Gust Speed Precip Events Conditions
12:53 AM 70.0 °F - 50.0 °F 49% 30.02 in 10.0 mi SSW 3.5 mph - N/A   Clear
1:53 AM 68.0 °F - 51.1 °F 55% 30.02 in 10.0 mi Calm Calm - N/A   Clear
2:53 AM 68.0 °F - 51.1 °F 55% 30.02 in 10.0 mi Calm Calm - N/A   Clear
3:53 AM 66.9 °F - 52.0 °F 59% 30.02 in 10.0 mi Calm Calm - N/A   Clear
4:53 AM 66.9 °F - 53.1 °F 61% 30.02 in 10.0 mi SSE 3.5 mph - N/A   Clear
5:53 AM 68.0 °F - 53.1 °F 59% 30.02 in 10.0 mi Calm Calm - N/A   Clear
6:53 AM 69.1 °F - 55.9 °F 63% 30.03 in 10.0 mi Calm Calm - N/A   Clear
7:53 AM 73.0 °F - 55.9 °F 55% 30.02 in 10.0 mi East 4.6 mph - N/A   Clear
8:53 AM 79.0 °F - 57.0 °F 47% 29.99 in 10.0 mi ESE 8.1 mph - N/A   Clear
9:53 AM 84.0 °F 82.9 °F 55.0 °F 37% 29.96 in 10.0 mi SE 9.2 mph - N/A   Clear
10:53 AM 84.0 °F 83.3 °F 57.0 °F 40% 29.96 in 10.0 mi SE 15.0 mph 25.3 mph N/A   Clear
11:53 AM 84.0 °F 83.8 °F 59.0 °F 43% 29.93 in 10.0 mi SSE 16.1 mph - N/A   Scattered Clouds
12:53 PM 73.0 °F - 66.0 °F 79% 29.93 in 8.0 mi SSW 6.9 mph - 0.00 in Rain Light Rain
1:06 PM 71.6 °F - 66.2 °F 83% 29.94 in 1.8 mi South 5.8 mph - 0.01 in Rain Rain
1:14 PM 71.6 °F - 66.2 °F 83% 29.94 in 3.0 mi South 4.6 mph - 0.05 in Rain Light Rain
1:53 PM 75.0 °F - 66.9 °F 76% 29.92 in 8.0 mi SSE 6.9 mph - 0.05 in   Overcast
2:53 PM 77.0 °F - 66.9 °F 71% 29.90 in 9.0 mi SE 12.7 mph - N/A   Mostly Cloudy
3:53 PM 77.0 °F - 66.9 °F 71% 29.86 in 10.0 mi SSE 16.1 mph 20.7 mph 0.00 in   Mostly Cloudy
4:53 PM 78.1 °F - 66.9 °F 68% 29.84 in 9.0 mi SSE 20.7 mph 25.3 mph 0.00 in   Mostly Cloudy
5:53 PM 73.9 °F - 66.0 °F 76% 29.82 in 7.0 mi SSE 12.7 mph 21.9 mph N/A   Overcast
6:53 PM 73.9 °F - 66.9 °F 79% 29.81 in 7.0 mi SSE 11.5 mph - 0.00 in   Mostly Cloudy
7:53 PM 73.0 °F - 66.9 °F 81% 29.79 in 5.0 mi South 6.9 mph - N/A   Haze
8:53 PM 72.0 °F - 66.9 °F 84% 29.77 in 5.0 mi South 6.9 mph - N/A   Haze
9:53 PM 72.0 °F - 68.0 °F 87% 29.78 in 5.0 mi South 4.6 mph - N/A   Clear
10:53 PM 72.0 °F - 68.0 °F 87% 29.78 in 6.0 mi South 6.9 mph - N/A   Clear
11:53 PM 73.0 °F - 66.9 °F 81% 29.78 in 7.0 mi WSW 10.4 mph 16.1 mph 0.00 in Rain Light Rain